TimeMDT,TemperatureF,Dew PointF,Humidity,Sea Level PressureIn,VisibilityMPH,Wind Direction,Wind SpeedMPH,Gust SpeedMPH,PrecipitationIn,Events,Conditions,WindDirDegrees,DateUTC
12:56 AM,28.9,25.0,85,30.02,10.0,West,5.8,-,N/A,,Clear,280,2013-04-24 06:56:00
1:56 AM,27.0,23.0,85,30.02,10.0,West,4.6,-,N/A,,Mostly Cloudy,280,2013-04-24 07:56:00
2:56 AM,28.9,25.0,85,30.00,10.0,WNW,6.9,-,N/A,,Overcast,300,2013-04-24 08:56:00
3:56 AM,27.0,25.0,92,29.98,10.0,West,6.9,-,N/A,,Mostly Cloudy,270,2013-04-24 09:56:00
4:56 AM,30.9,27.0,85,29.99,10.0,NW,11.5,-,N/A,,Overcast,310,2013-04-24 10:56:00
5:47 AM,30.2,26.6,86,29.94,9.0,NW,12.7,-,0.00,,Overcast,310,2013-04-24 11:47:00
5:54 AM,30.2,28.4,93,29.94,10.0,NW,10.4,-,0.00,,Overcast,310,2013-04-24 11:54:00
5:56 AM,30.0,28.0,92,29.99,10.0,NW,9.2,-,0.00,,Overcast,310,2013-04-24 11:56:00
6:26 AM,28.4,26.6,93,29.94,10.0,WNW,10.4,-,N/A,,Partly Cloudy,300,2013-04-24 12:26:00
6:49 AM,30.2,26.6,86,29.94,10.0,WNW,17.3,-,N/A,,Mostly Cloudy,290,2013-04-24 12:49:00
6:56 AM,30.9,28.0,89,30.00,10.0,WNW,15.0,-,N/A,,Mostly Cloudy,290,2013-04-24 12:56:00
7:09 AM,30.2,26.6,86,29.94,10.0,WNW,16.1,-,N/A,,Scattered Clouds,290,2013-04-24 13:09:00
7:25 AM,32.0,28.4,87,29.95,10.0,WNW,25.3,33.4,N/A,,Mostly Cloudy,290,2013-04-24 13:25:00
7:56 AM,32.0,28.0,85,30.02,10.0,WNW,18.4,-,N/A,,Overcast,290,2013-04-24 13:56:00
8:03 AM,32.0,28.4,87,29.95,8.0,WNW,19.6,-,N/A,,Overcast,290,2013-04-24 14:03:00
8:11 AM,32.0,28.4,87,29.95,2.5,West,19.6,23.0,0.00,Snow,Light Snow,280,2013-04-24 14:11:00
8:24 AM,32.0,28.4,87,29.95,1.5,WNW,17.3,-,0.00,Snow,Light Snow,290,2013-04-24 14:24:00
8:29 AM,33.8,28.4,81,29.95,3.0,WNW,19.6,-,0.00,Snow,Light Snow,290,2013-04-24 14:29:00
8:40 AM,33.8,28.4,81,29.95,9.0,WNW,18.4,28.8,0.00,,Overcast,300,2013-04-24 14:40:00
8:56 AM,33.1,26.1,75,30.02,4.0,NW,26.5,38.0,0.00,Snow,Light Snow,310,2013-04-24 14:56:00
9:09 AM,33.8,24.8,70,29.95,9.0,NW,29.9,35.7,0.00,,Mostly Cloudy,310,2013-04-24 15:09:00
9:27 AM,32.0,26.6,80,29.97,1.8,NW,26.5,39.1,0.00,Snow,Light Snow,320,2013-04-24 15:27:00
9:33 AM,33.8,26.6,75,29.97,2.0,NW,29.9,40.3,0.00,Snow,Light Snow,310,2013-04-24 15:33:00
9:36 AM,33.8,24.8,70,29.97,5.0,NW,27.6,40.3,0.00,Snow,Light Snow,320,2013-04-24 15:36:00
9:46 AM,33.8,23.0,65,29.97,10.0,NW,26.5,36.8,0.00,,Overcast,310,2013-04-24 15:46:00
9:56 AM,34.0,23.0,64,30.05,10.0,NW,29.9,36.8,0.00,,Mostly Cloudy,310,2013-04-24 15:56:00
10:56 AM,30.9,24.1,76,30.08,2.0,NW,25.3,36.8,0.00,Snow,Light Snow,310,2013-04-24 16:56:00
10:59 AM,30.2,24.8,80,30.01,1.5,NW,26.5,36.8,0.00,Snow,Light Snow,310,2013-04-24 16:59:00
11:06 AM,33.8,26.6,75,30.01,2.5,NW,20.7,34.5,0.00,Snow,Light Snow,320,2013-04-24 17:06:00
11:09 AM,33.8,24.8,70,30.01,4.0,NW,26.5,33.4,0.00,Snow,Light Snow,320,2013-04-24 17:09:00
11:30 AM,35.6,21.2,56,30.02,6.0,NNW,24.2,31.1,0.00,Snow,Light Snow,330,2013-04-24 17:30:00
11:41 AM,33.8,24.8,70,30.01,5.0,NW,19.6,29.9,0.00,Snow,Light Snow,320,2013-04-24 17:41:00
11:49 AM,35.6,24.8,65,30.01,9.0,NW,21.9,31.1,0.00,,Overcast,310,2013-04-24 17:49:00
11:56 AM,32.0,25.0,75,30.09,6.0,WNW,27.6,33.4,0.00,Snow,Light Snow,300,2013-04-24 17:56:00
12:08 PM,35.6,26.6,70,30.02,9.0,NW,24.2,33.4,0.00,Snow,Light Snow,310,2013-04-24 18:08:00
12:56 PM,35.1,23.0,61,30.10,7.0,NW,21.9,32.2,0.00,,Mostly Cloudy,310,2013-04-24 18:56:00
1:56 PM,39.0,19.9,46,30.09,10.0,NW,26.5,36.8,0.00,,Mostly Cloudy,310,2013-04-24 19:56:00
2:56 PM,37.9,17.1,43,30.09,10.0,NW,21.9,32.2,N/A,,Mostly Cloudy,320,2013-04-24 20:56:00
3:56 PM,39.0,17.1,41,30.10,10.0,NNW,25.3,33.4,N/A,,Mostly Cloudy,330,2013-04-24 21:56:00
4:56 PM,39.9,17.1,40,30.09,10.0,NNW,17.3,31.1,N/A,,Partly Cloudy,340,2013-04-24 22:56:00
5:56 PM,39.0,16.0,39,30.09,10.0,NNW,15.0,23.0,N/A,,Clear,330,2013-04-24 23:56:00
6:56 PM,37.9,17.1,43,30.08,10.0,North,8.1,-,N/A,,Clear,350,2013-04-25 00:56:00
7:56 PM,33.1,17.1,52,30.08,10.0,North,5.8,-,N/A,,Clear,10,2013-04-25 01:56:00
8:56 PM,30.9,17.1,57,30.10,10.0,Calm,Calm,-,N/A,,Clear,0,2013-04-25 02:56:00
9:56 PM,25.0,17.1,72,30.10,10.0,South,6.9,-,N/A,,Clear,180,2013-04-25 03:56:00
10:56 PM,24.1,17.1,75,30.09,10.0,South,5.8,-,N/A,,Clear,180,2013-04-25 04:56:00
11:56 PM,23.0,17.1,78,30.08,10.0,South,9.2,-,N/A,,Clear,180,2013-04-25 05:56:00